Location: Tumbler Ridge
(55.1167°N, 121.0000°W)
Time: 02:17:08
(UTC-08:00)

Daily predictions for brighter satellites

Satellite Brightness Start Highest point End
(mag) Time Altitude Azimuth Time Altitude Azimuth Time Altitude Azimuth
Cosmos 2369 Rocket 4.4 03:12:19 20° NE 03:12:19 20° NE 03:15:22 10° ENE
ADEOS II 4.4 03:09:49 10° NE 03:12:25 19° ENE 03:12:25 19° ENE
ATLAS 3B R/B 3.8 03:17:17 39° NE 03:17:17 39° NE 03:21:34 10° NE
Cosmos 2219 Rocket 3.9 03:31:12 29° ENE 03:31:12 29° ENE 03:34:10 10° NE
CZ-4C R/B 3.8 03:32:24 33° NE 03:32:24 33° NE 03:36:10 10° NE
ATLAS 5 CENTAUR R/B 4.1 03:33:24 23° NE 03:33:24 23° NE 03:35:30 10° NE
Cosmos 2333 Rocket 3.7 03:38:55 33° ENE 03:38:55 33° ENE 03:42:33 10° NE
NOSS 3-2 (A) 4.1 03:53:08 57° ENE 03:53:08 57° ENE 03:58:40 10° NE
ADEOS Rocket 4.1 03:54:12 10° NNE 03:57:12 33° NNE 03:57:12 33° NNE
NOSS 0 Rocket 4.5 04:01:23 54° ESE 04:01:23 54° ESE 04:07:14 10° NE
SL-16 R/B 4.1 03:59:25 13° SSE 04:03:19 26° ESE 04:07:55 10° NE
Cosmos 1943 Rocket 3.9 04:04:22 23° NNE 04:04:58 23° NNE 04:09:20 10° E
COSMOS 2428 3.9 04:10:55 36° NNE 04:10:55 36° NNE 04:14:15 10° NNE
Cosmos 2322 Rocket 4.1 04:14:31 20° N 04:14:31 20° N 04:16:48 10° NNE
Cosmos 2360 Rocket 3.8 04:17:53 25° N 04:17:53 25° N 04:20:30 10° NNE
Lacrosse 4 Rocket 3.9 04:17:31 17° NE 04:17:31 17° NE 04:19:24 10° ENE
Cosmos 1980 Rocket 4.2 04:18:37 17° N 04:18:37 17° N 04:20:50 10° NNE
COSMOS 2455 4.0 04:22:04 33° N 04:22:04 33° N 04:26:06 10° NE
Cosmos 2237 Rocket 2.2 04:34:09 75° ESE 04:34:09 75° ESE 04:39:39 10° NE
CZ-2D R/B 4.5 04:29:55 10° N 04:30:21 12° N 04:30:21 12° N
CZ-4B R/B 3.9 04:31:12 10° NNE 04:34:56 43° N 04:34:56 43° N
Cosmos 1709 Rocket 3.9 04:36:53 57° S 04:38:19 87° E 04:44:37 10° NNE
SL-16 R/B 3.9 04:39:56 20° N 04:39:56 20° N 04:42:47 10° NNE
Okean-O 3.9 04:36:04 10° NNE 04:38:47 35° NE 04:38:47 35° NE
Meteor 1-18 Rocket 4.2 04:41:22 73° N 04:42:01 88° ENE 04:47:58 10° SSE
USA 238 DEB 3.9 04:44:53 52° NW 04:45:20 53° NNW 04:52:14 10° NE
USA 238 3.9 04:44:59 52° NW 04:45:25 53° NNW 04:52:20 10° NE
Cosmos 1238 Rocket 4.3 04:47:59 37° SSE 04:47:59 37° SSE 04:51:14 10° S
CENTAUR R/B 3.1 04:46:00 29° SSW 04:49:13 57° SE 04:56:12 10° NE
Lacrosse 5 rocket 2.1 04:54:49 52° E 04:54:49 52° E 04:58:12 10° ENE
ADEOS II 2.2 04:48:54 10° NNE 04:53:21 63° N 04:53:21 63° N
Cosmos 2369 Rocket 2.7 04:54:08 37° N 04:56:13 57° NE 05:01:50 10° SE
Cosmos 724 4.4 05:05:11 59° WNW 05:05:52 63° NW 05:12:07 10° NE
Cosmos 1315 Rocket 4.1 05:07:43 31° NNE 05:07:43 31° NNE 05:09:56 10° NNE
ATLAS 3B R/B 3.3 05:04:33 38° NW 05:06:11 43° N 05:12:50 10° ENE
Cosmos 921 Rocket 4.2 05:08:51 33° S 05:08:51 33° S 05:11:27 10° S
Cosmos 1980 3.6 05:07:33 65° W 05:08:00 68° NW 05:13:44 10° NNE
Okean 1-7 Rocket 4.5 05:06:21 20° N 05:09:08 48° ENE 05:13:24 10° SSE
Meteor 1-20 Rocket 4.5 05:06:27 10° S 05:11:57 66° E 05:17:24 10° NNE
Cosmos 2219 Rocket 2.4 05:12:57 49° NW 05:12:57 49° NW 05:18:19 10° NNE
COSMO-SKYMED 1 2.8 05:09:53 10° S 05:13:28 58° SSW 05:13:28 58° SSW
ATLAS 5 CENTAUR R/B 2.9 05:14:57 35° NNW 05:15:33 36° N 05:20:54 10° ENE
NOSS 3-2 (C) 3.7 05:14:23 49° W 05:15:58 62° NNW 05:23:03 10° NE
Nadezhda 3 Rocket 4.2 05:11:41 10° N 05:18:03 72° ENE 05:24:26 10° SSE
Cosmos 2056 Rocket 3.3 05:17:27 57° NW 05:18:28 76° WSW 05:23:35 10° SSE
CZ-4C R/B 3.2 05:17:35 35° NW 05:19:15 41° N 05:25:50 10° ENE
Cosmos 2333 Rocket 2.3 05:20:58 51° WNW 05:21:29 53° NW 05:27:03 10° NNE
Meteor 1-14 Rocket 4.1 05:18:39 10° SSW 05:24:16 68° WNW 05:29:50 10° N
Cosmos 773 Rocket 3.9 05:28:34 49° WSW 05:29:39 61° WNW 05:34:45 10° NNE
USA 32 4.0 05:28:59 38° NW 05:30:41 54° W 05:35:46 10° SSW
Meteor 1-19 Rocket 4.3 05:24:55 10° NNW 05:30:50 83° ENE 05:36:41 10° SSE
Cosmos 1538 Rocket 4.3 05:31:05 44° NW 05:31:05 44° NW 05:36:03 10° NNE
Cosmos 1624 Rocket 4.0 05:31:20 46° WNW 05:32:30 57° WSW 05:37:41 10° S
Cosmos 1371 Rocket 4.3 05:35:56 44° W 05:36:34 46° WSW 05:41:35 10° S
Cosmos 2327 Rocket 4.4 05:30:48 10° SSW 05:37:11 83° WNW 05:43:32 10° N
Ariane Rocket 3.5 05:32:21 10° NNE 05:37:23 61° ESE 05:42:24 10° S
Cosmos 923 Rocket 3.9 05:34:19 22° SW 05:37:49 70° WNW 05:43:07 10° NNE
Cosmos 1346 Rocket 3.8 05:40:03 31° SSW 05:40:03 31° SSW 05:42:22 10° S
Cosmos 1300 Rocket 3.9 05:36:06 10° S 05:40:29 66° E 05:44:53 10° NNE
NOSS 3-2 (A) 4.0 05:40:32 34° WNW 05:43:06 50° NNW 05:50:08 10° ENE
ADEOS Rocket 4.0 05:40:29 10° N 05:44:09 25° NW 05:44:09 25° NW
Cosmos 2074 Rocket 3.9 05:39:53 10° SSW 05:46:09 71° WNW 05:52:26 10° N
Meteor 1-13 Rocket 4.3 05:40:29 10° NNW 05:46:24 69° W 05:52:18 10° S
CRYOSAT 2 4.4 05:41:53 10° SSW 05:46:41 55° W 05:51:32 10° NNW
SL-16 R/B 2.1 05:41:26 11° SW 05:46:56 76° NW 05:52:39 10° NNE
Meteor 1-25 Rocket 4.2 05:41:19 10° SSW 05:47:08 67° WNW 05:52:57 10° N
Cosmos 292 Rocket 3.6 05:42:48 10° SSW 05:47:39 80° WNW 05:52:31 10° NNE
NOSS 0 Rocket 4.2 05:45:26 32° W 05:47:50 47° NW 05:53:51 10° NNE
CZ-4 R/B 3.3 05:44:22 10° NNE 05:47:59 31° E 05:51:31 10° SSE
Cosmos 1943 Rocket 2.4 05:45:54 20° NNW 05:49:47 65° NE 05:55:15 10° SE
SL-24 DEB 4.3 05:46:21 10° S 05:51:09 88° E 05:55:59 10° N
COSMOS 2428 3.8 05:52:58 25° NW 05:53:43 26° NNW 05:58:30 10° NNE
Lacrosse 4 Rocket 2.1 05:53:52 24° NNW 05:56:07 47° NE 06:00:08 10° ESE
Cosmos 2263 4.1 05:53:18 22° NW 05:57:06 85° WSW 06:02:42 10° SSE
Cosmos 2322 Rocket 4.0 05:56:20 15° NNW 05:58:02 16° N 06:01:36 10° NNE
Cosmos 2184 Rocket 3.9 05:53:55 10° SSW 06:00:01 60° WNW 06:06:12 10° N
Cosmos 2360 Rocket 3.7 05:59:38 18° NNW 06:00:40 19° NNW 06:04:38 10° NNE
Meteor 1-23 Rocket 4.1 05:56:15 10° NNW 06:01:53 90° SSW 06:07:27 10° SSE
SKYMED 2 4.5 05:58:46 10° SSW 06:02:05 28° WSW 06:02:05 28° WSW
Cosmos 1980 Rocket 4.1 06:00:23 12° NNW 06:03:11 17° N 06:06:43 10° NE
CSL-04 DEB 4.3 05:59:41 10° NNE 06:03:42 83° WNW 06:07:48 10° SSW
Cosmos 2151 Rocket 3.9 05:59:52 10° SW 06:04:10 43° WNW 06:08:28 10° N
Cosmos 2084 Rocket 4.5 06:05:11 24° NNW 06:06:00 25° N 06:09:14 10° NE
Cosmos 1680 Rocket 3.5 06:01:16 10° SW 06:06:24 55° NW 06:11:34 10° NNE
USA 215 3.6 06:00:48 10° ENE 06:07:19 67° SSE 06:13:49 10° SW
COSMOS 2455 4.1 06:05:13 19° NW 06:07:57 26° N 06:13:00 10° NE
Cosmos 1452 Rocket 3.5 06:04:14 19° NNW 06:08:01 68° WSW 06:13:15 10° SSE
Meteor 1-28 Rocket 3.7 06:04:35 10° SSW 06:08:09 38° W 06:09:00 33° WNW
Cosmos 1633 2.5 06:06:06 10° S 06:09:45 88° W 06:13:25 10° NNE
Cosmos 1536 3.1 06:07:11 10° S 06:11:09 69° E 06:15:11 10° NNE
Cosmos 2154 Rocket 3.9 06:09:02 10° SSW 06:15:15 80° WNW 06:21:30 10° N
NOAA 6 4.3 06:11:40 10° N 06:16:32 45° WNW 06:21:23 10° SW
CZ-4B R/B 4.4 06:12:37 10° N 06:16:35 20° NW 06:16:50 20° NW
Okean-O 3.7 06:13:08 10° N 06:16:22 23° NW 06:16:22 23° NW
Cosmos 2237 Rocket 2.9 06:16:01 23° W 06:18:37 33° NW 06:23:41 10° NNE
Meteor 2-13 Rocket 4.4 06:13:37 10° SSW 06:19:48 80° WNW 06:26:00 10° N
Meteor 2-4 Rocket 3.7 06:14:58 10° NNW 06:20:20 60° W 06:25:48 10° S
Cosmos 1656 Rocket 4.2 06:15:19 12° NNW 06:20:26 58° NE 06:26:02 10° SE
Cosmos 1340 2.6 06:17:10 10° NNW 06:20:55 88° ENE 06:24:43 10° SSE
SL-16 R/B 4.1 06:21:48 12° NNW 06:24:35 16° N 06:28:04 10° NE
Radarsat Rocket 4.4 06:18:07 10° NNE 06:24:37 62° WNW 06:31:58 10° SW
Cosmos 2112 Rocket 4.2 06:20:22 10° SW 06:25:23 47° NW 06:30:26 10° NNE
CZ-2C R/B 3.2 06:20:20 10° NNE 06:25:30 59° E 06:30:35 10° S
Helios 1B rocket 2.4 06:21:36 10° S 06:25:45 69° WSW 06:29:55 10° NNW
YAOGAN 1 3.5 06:22:35 10° NNE 06:26:52 53° E 06:31:06 10° S
CSL-04 Debris 4.1 06:23:58 10° NNE 06:29:26 80° WNW 06:34:55 10° SSW
CSL-04 Rocket 3.7 06:23:55 10° NNE 06:29:29 72° WNW 06:35:00 10° SSW
ADEOS II 3.4 06:29:35 10° N 06:33:11 19° NW 06:34:19 18° WNW
Lacrosse 5 rocket 1.5 06:30:32 21° W 06:33:18 68° N 06:37:42 10° E
GRACE-2 3.9 06:32:43 10° N 06:35:28 53° W 06:38:12 10° SSW
GRACE-1 3.9 06:33:09 10° N 06:35:54 52° W 06:38:37 10° SSW
Cosmos 1025 Rocket 3.4 06:32:48 10° NNW 06:36:59 42° W 06:41:07 10° SSW
SMAP 3.4 06:32:31 10° NNE 06:37:12 69° ESE 06:41:51 10° S
USA 238 DEB 4.4 06:32:20 17° WNW 06:37:35 44° N 06:44:17 10° ENE
USA 238 4.4 06:32:26 17° WNW 06:37:40 44° N 06:44:23 10° ENE
Cosmos 1697 Rocket 4.4 06:34:10 10° NNW 06:38:33 22° NNE 06:42:56 10° ENE
Cosmos 1602 Rocket 4.3 06:34:51 10° N 06:39:17 55° ENE 06:43:42 10° SSE
Meteor 1-5 Rocket 4.4 06:34:03 10° S 06:39:22 72° E 06:44:40 10° NNE
CENTAUR R/B 2.8 06:33:31 10° WSW 06:40:00 60° NNW 06:47:25 10° NE
Cosmos 2369 Rocket 2.8 06:35:57 15° NW 06:40:04 37° WSW 06:45:15 10° S
Cosmos 1315 Rocket 4.5 06:43:32 16° NW 06:43:32 16° NW 06:45:36 10° NNW
Cosmos 1603 3.7 06:38:44 10° SW 06:44:25 72° NW 06:50:06 10° NNE
Cosmos 839 Rocket 4.3 06:39:10 13° NW 06:45:27 62° SW 06:51:31 10° SSE
DNEPR-1 R/B 4.3 06:38:55 10° SW 06:45:41 81° NW 06:51:12 10° NE
Okean 1 Rocket 3.4 06:42:15 10° SW 06:46:25 41° WNW 06:50:36 10° N
PAYLOAD A 4.1 06:45:46 10° NNE 06:51:01 71° WNW 06:56:24 10° SSW
COSMO-SKYMED 1 4.5 06:49:32 10° WSW 06:50:40 12° W 06:50:40 12° W
Cosmos 1544 Rocket 3.7 06:47:41 10° S 06:52:02 78° E 06:56:28 10° NNE
SL-8 Rocket 4.0 06:46:13 10° S 06:52:30 86° W 06:58:46 10° N
Cosmos 1975 4.2 06:49:04 10° SSE 06:52:57 44° E 06:56:53 10° NNE
SPOT 3 Rocket 3.6 06:50:10 10° NNE 06:55:22 86° ESE 07:00:32 10° SSW
Lacrosse 5 3.2 06:51:43 10° SSW 06:56:31 42° SE 07:01:19 10° ENE
Cosmos 2219 Rocket 3.6 06:54:42 13° WNW 06:58:07 21° NNW 07:02:19 10° NNE
ATLAS 3B R/B 3.3 06:51:48 12° NW 06:58:17 49° NNE 07:04:53 10° E
CORIOLIS 4.3 06:54:32 10° NNE 06:59:56 84° ESE 07:05:18 10° SSW
ATLAS 5 CENTAUR R/B 2.9 06:56:30 12° NW 07:01:24 43° NNE 07:07:10 10° E
Meteor 2-19 Rocket 4.5 06:55:16 10° S 07:01:25 87° W 07:07:33 10° NNE
MONITOR-E 4.4 06:59:25 10° NNE 07:02:40 80° ESE 07:05:52 10° SSW
Cosmos 1515 3.7 06:58:47 10° NNW 07:02:40 76° W 07:06:30 10° S
Cosmos 2366 rocket 4.1 06:56:28 10° S 07:02:47 86° E 07:09:12 10° NNE
Okean 2 4.1 07:01:38 10° NNW 07:05:26 34° W 07:09:12 10° SSW
Cosmos 2218 Rocket 4.1 06:59:10 10° SSW 07:05:35 84° WNW 07:12:02 10° N
Cosmos 1892 Rocket 4.2 07:02:41 10° NNW 07:06:47 37° W 07:10:55 10° SSW
Cosmos 2333 Rocket 3.5 07:03:01 11° WNW 07:07:03 21° NNW 07:11:21 10° NNE
NOSS 3-2 (C) 4.3 07:01:50 11° WNW 07:08:04 43° N 07:15:07 10° ENE
Cosmos 1959 Rocket 4.4 07:02:07 10° SSW 07:08:15 80° WNW 07:14:24 10° N
MOS 1 4.3 07:02:40 10° NNE 07:08:21 81° WNW 07:14:00 10° SSW
Cosmos 192 4.5 07:03:54 10° SW 07:08:42 51° NW 07:13:31 10° NNE
CZ-4C R/B 3.1 07:02:46 10° NW 07:09:02 54° NNE 07:16:16 10° E
Cosmos 1867 4.0 07:03:53 10° NW 07:09:19 58° NE 07:14:43 10° ESE
Cosmos 1943 3.2 07:05:50 10° SSW 07:11:29 86° WNW 07:17:12 10° NNE
Meteor 1-29 4.0 07:08:56 10° SSW 07:11:50 26° W 07:14:45 10° NW
IDEFIX/ARIANE 42P 2.5 07:07:52 10° NNE 07:13:03 68° WNW 07:18:12 10° SSW
Cosmos 44 Rocket 3.5 07:09:05 10° SW 07:14:16 87° SE 07:19:22 10° NE
Ariane Rocket 3.8 07:11:46 10° N 07:16:05 29° WNW 07:20:22 10° WSW
Cosmos 1626 Rocket 3.7 07:18:34 10° NNW 07:23:00 63° W 07:27:23 10° S
CZ-4 R/B 1.9 07:19:25 10° N 07:23:06 35° WNW 07:26:43 10° SW
SJ-12 4.4 07:19:22 10° N 07:23:16 40° WNW 07:27:10 10° SW
Cosmos 1727 Rocket 4.2 07:18:33 10° NNW 07:24:32 52° W 07:30:28 10° SSW
Meteor 1-11 Rocket 4.4 07:19:56 10° SW 07:25:11 34° WNW 07:30:24 10° N
Cosmos 1331 Rocket 4.0 07:21:04 10° NNW 07:26:18 82° WSW 07:31:27 10° SSE
Cosmos 1048 Rocket 4.3 07:21:35 10° SSW 07:26:43 73° ESE 07:31:55 10° NNE
Cosmos 1743 4.2 07:23:32 10° SSE 07:27:14 42° E 07:30:58 10° NNE
SJ-6B 4.1 07:24:20 10° NNE 07:28:02 44° E 07:31:46 10° S
USA 229 DEB 4.5 07:22:05 10° SSW 07:28:51 61° SE 07:35:45 10° NE
USA 229 4.5 07:22:13 10° SSW 07:28:58 61° SE 07:35:52 10° NE
Cosmos 405 Rocket 2.7 07:25:33 10° NNW 07:29:29 86° WSW 07:33:17 10° S
SL-16 R/B 3.2 07:27:16 10° W 07:31:59 26° NNW 07:36:44 10° NNE
Cosmos 2278 4.3 07:27:26 10° NNW 07:33:02 56° NE 07:38:36 10° SE
